Location: Baumgarten
(49.0970°N, 12.7493°E)
Time: 08:38:28
(UTC+00:00)

Cosmos 1825 Rocket - Pass Details

Date: 05 July 2020
Orbit: 604 x 631 km, 82.5° (Epoch: 05 August)

Event Time Altitude Azimuth Distance (km) Brightness Sun altitude
Exits shadow 20:10:14 - 181° (S) 2,810 6.5 -7.4°
Reaches altitude 10° 20:12:15 10° 179° (S) 1,997 5.7 -7.6°
Maximum altitude 20:16:38 69° 97° (E) 679 3.6 -8.1°
Drops below altitude 10° 20:21:06 10° 14° (NNE) 2,023 6.7 -8.6°
Sets 20:23:22 0° 12° (NNE) 2,937 7.6 -8.8°
